Flag for Canada Weather past 2 weeks in Halifax, Nova Scotia, Canada

Now
30 °F

Light snow. Low clouds.


Feels Like: 18 °F
Forecast: 25 / 35 °F
Wind: 17 mph from Northwest

Location: Halifax International Airport

Current Time: Mar 2, 2015 at 3:27:56 PM

Latest Report: Mar 2, 2015 at 2:53 PM


Visibility: 2 mi

Pressure: 29.49 "Hg

Humidity: 86%

Dew point: 27 °F

Location of HalifaxLocation

Historic Weather in Halifax — Graph

°F

Halifax temperature yesterday

Maximum temperature yesterday: 28 °F (at 1:00 PM)
Minimum temperature yesterday: 10 °F (at 5:00 AM)
Average temperature yesterday: 20 °F

Past Weeks' High & Low Weather Summary

 TemperatureHumidityPressure
High41 °F (Feb 22, 8:00 AM)100% (Feb 19, 12:00 AM)30.64 "Hg (Feb 19, 12:00 AM)
Low-8 °F (Feb 24, 6:00 AM)36% (Feb 28, 4:00 PM)28.68 "Hg (Feb 15, 8:00 PM)
Average18 °F76%29.91 "Hg
* Reported Feb 15 2:00 PM — Mar 2 2:00 PM, Halifax, Weather by CustomWeather, © 2015

Note: Actual official high and low records may vary slightly from our data, if they occured in-between our weather recording intervals... More about our weather records

Advertising

Halifax weather history for previous 24 hours

 ConditionsComfort  
Time TempWeatherWind HumidityBarometerVisibility
2:00 PM
Mon, Mar 2
32 °FLight snow. Low clouds.9 mph93%29.50 "Hg1 mi
1:00 PM32 °FLight snow. Ice fog.8 mph93%29.53 "Hg3 mi
12:00 PM32 °FLight snow. Ice fog.7 mph93%29.59 "Hg3 mi
11:00 AM30 °FLight snow. Ice fog.6 mph100%29.65 "Hg3 mi
10:00 AM30 °FLight snow. More clouds than sun.8 mph93%29.71 "Hg1 mi
9:00 AM28 °FLight snow. More clouds than sun.7 mph100%29.77 "Hg1 mi
8:03 AM27 °FLight snow. Ice fog.7 mph100%29.81 "Hg1 mi
7:00 AM27 °FLight snow. Ice fog.9 mph100%29.87 "Hg1 mi
6:00 AM27 °FSnow flurries. Overcast.9 mph100%29.91 "Hg4 mi
5:00 AM27 °FSnow flurries. Low clouds.9 mph100%29.98 "Hg3 mi
4:00 AM27 °FSnow flurries. Low clouds.7 mph93%30.04 "Hg3 mi
3:00 AM27 °FSnow flurries. Low clouds.9 mph93%30.09 "Hg3 mi
2:00 AM27 °FSnow flurries. Low clouds.9 mph93%30.15 "Hg3 mi
1:00 AM25 °FSnow flurries. Overcast.10 mph93%30.19 "Hg3 mi
12:00 AM23 °FOvercast.7 mph93%30.24 "Hg15 mi
11:00 PM
Sun, Mar 1
23 °FMostly cloudy.8 mph86%30.30 "Hg15 mi
10:00 PM21 °FPassing clouds.8 mph93%30.34 "Hg15 mi
9:00 PM21 °FPassing clouds.7 mph86%30.38 "Hg15 mi
8:00 PM23 °FPassing clouds.9 mph86%30.41 "Hg15 mi
7:00 PM25 °FPassing clouds.8 mph74%30.42 "Hg15 mi
6:00 PM25 °FBroken clouds.9 mph74%30.44 "Hg15 mi
5:00 PM27 °FPartly sunny.10 mph64%30.46 "Hg15 mi
4:00 PM28 °FOvercast.14 mph51%30.49 "Hg15 mi
3:00 PM28 °FOvercast.10 mph47%30.51 "Hg15 mi
Weather by CustomWeather, © 2015

See weather overviewHow to use our weather pages